Hourly Data Report for July 17, 2021

WINNIPEG THE FORKS
MANITOBA
Current Station Operator: ECCC - MSC

49°53'18.008" N
97°07'46.007" W
230.00 m
5023262
71579
XWN

Download Data

Hourly Data (July 2021)
Hourly Data Report for July 17, 2021
TIME
LST
Temp Definition
°C
Dew Point Definition
°C
Rel Hum Definition
%
Precip. Amount Definition
mm

Wind Dir Definition
10's deg

Wind Spd Definition
km/h
Visibility Definition
km
Stn Press Definition
kPa
Hmdx Definition


Wind Chill Definition


Weather Definition


00:00 24.2 13.9 53 0.0 20 10   98.75 28   LegendNANA
01:00 23.4 13.5 54 0.0 20 8   98.77 26   LegendNANA
02:00 22.6 13.5 57 0.0 20 8   98.82 26   LegendNANA
03:00 22.0 13.6 59 0.0 20 9   98.86 25   LegendNANA
04:00 20.9 13.7 63 0.0 20 6   98.93     LegendNANA
05:00 20.8 13.9 65 0.0 20 5   98.98     LegendNANA
06:00 20.7 14.2 66 0.0 20 3   99.03     LegendNANA
07:00 21.0 14.4 66 0.0 0 1   99.06 25   LegendNANA
08:00 22.9 14.8 60 0.0 23 2   99.08 27   LegendNANA
09:00 24.9 15.5 56 0.0 19 8   99.12 29   LegendNANA
10:00 26.8 15.7 51 0.0 20 6   99.12 31   LegendNANA
11:00 28.6 14.9 43 0.0 20 11   99.12 33   LegendNANA
12:00 29.9 13.1 36 0.0 20 7   99.12 33   LegendNANA
13:00 30.8 14.2 36 0.0 22 4   99.13 34   LegendNANA
14:00 30.8 13.1 34 0.0 21 8   99.13 34   LegendNANA
15:00 30.7 12.0 32 0.0 20 7   99.14 33   LegendNANA
16:00 30.7 12.1 32 0.0 29 3   99.11 33   LegendNANA
17:00 30.0 11.8 33 0.0 26 4   99.08 32   LegendNANA
18:00 29.6 11.8 33 0.0 20 4   99.16 32   LegendNANA
19:00 28.7 11.1 34 0.0 20 4   99.14 31   LegendNANA
20:00 27.3 11.9 38 0.0 20 3   99.19 30   LegendNANA
21:00 25.8 12.7 44 0.0 23 2   99.16 28   LegendNANA
22:00 24.5 13.7 51 0.0 20 3   99.23 28   LegendNANA
23:00 23.6 13.8 54 0.0   0   99.24 27   LegendNANA

Notes on Data Quality.

Legend

  • E = Estimated
  • M = Missing
  • NA = Not Available*
  • [empty] = Indicates an unobserved value
Date modified: